[[{"header":{"parameterUnit":"m.s-1","parameterCategory":1,"la1":30.2991,"la2":30.254,"lo1":-89.0895,"lo2":-89.0444,"dy":0.0017,"dx":0.0017,"nx":28,"ny":28,"refTime":"2024-06-09T09:00:00:Z","depth":0,"parameterNumber":2,"parameterNumberName":"U-component_of_WINDS"},"data":[0,0,0,0,0,0,0,0,0,0,0,0,0,0,0,0,0,0,0,0,0,0,0,0,0,0,0,0,0,0,0,0,0,0,0,0,0,0,0,0,0,0,0,0,0,0,0,0,0,0,0,0,0,0,0,0,0,0,2.358,2.3582,0,2.3718,2.3719,2.3721,2.3726,2.3724,2.3723,2.3721,2.3862,2.3867,2.3873,0,0,0,0,0,0,0,0,0,0,0,0,0,2.332,2.3325,2.358,2.3582,2.3584,2.3717,2.3719,2.3721,2.3726,2.3724,2.3722,2.372,2.3861,2.3867,2.3873,0,0,0,0,0,0,0,0,0,0,0,0,0,2.3443,2.3327,2.358,2.3602,2.3606,2.3717,2.3719,2.3722,2.3727,2.3724,2.3722,2.3719,2.3858,2.3866,2.3874,2.3973,0,0,2.3898,2.3902,0,0,0,0,0,0,0,0,2.3436,2.3453,2.3597,2.3601,2.3605,2.3702,2.368,2.3806,2.3727,2.3681,2.3721,2.3718,2.3811,2.3823,2.3854,2.3979,2.3985,2.3899,2.3904,2.3907,2.3909,0,0,0,0,0,0,0,2.3428,2.3447,2.3635,2.3599,2.3604,2.3605,2.362,2.3704,2.3758,2.3685,2.3685,2.3701,2.3813,2.3846,2.3857,2.3987,2.3899,2.3906,2.3911,2.3914,2.4197,2.42,0,0,0,0,0,0,2.3415,2.344,2.363,2.3639,2.3513,2.3612,2.3628,2.3673,2.3757,2.3768,2.3703,2.3701,2.3834,2.3848,2.3862,2.3981,2.3907,2.3915,2.3919,2.4195,2.4198,2.4201,0,0,0,0,0,0,2.3409,2.3432,2.3625,2.3539,2.3564,2.3619,2.367,2.3677,2.3711,2.3771,2.3781,2.3728,2.3833,2.3851,2.3944,2.3986,2.3918,2.3925,2.4191,2.4196,2.42,2.4221,0,0,0,0,0,0,2.3402,2.343,2.3468,2.354,2.3569,2.3705,2.3672,2.3682,2.3725,2.3723,2.3797,2.3807,2.3832,2.3933,2.3952,2.3996,2.3932,2.4188,2.4193,2.4198,2.4216,2.4225,2.4232,0,0,0,0,0,2.3393,2.3469,2.347,2.3493,2.3618,2.3707,2.3724,2.3751,2.3728,2.3767,2.3805,2.3804,2.3979,2.3942,2.3964,2.4011,2.4185,2.4192,2.4198,2.4213,2.4223,2.4232,0,0,0,0,0,0,2.3402,2.3479,2.3481,2.3584,2.3639,2.3708,2.3758,2.3762,2.3825,2.382,2.3852,2.3868,2.396,2.3995,2.3953,2.4109,2.4079,2.409,2.4083,2.4093,2.4101,2.409,2.3938,0,0,0,0,0,2.3415,2.3482,2.3546,2.363,2.3658,2.3703,2.3743,2.3759,2.3818,2.3841,2.3887,2.3943,2.401,2.4054,2.412,2.4222,2.4237,2.4265,2.4273,2.4279,2.4287,2.4342,2.4354,2.4222,2.4221,2.4221,0,0,2.3445,2.3496,2.3536,2.3633,2.3678,2.3745,2.3723,2.3796,2.3845,2.3852,2.3942,2.3978,2.4043,2.414,2.4186,2.4172,2.4327,2.4287,2.4291,2.4297,2.4349,2.4362,2.4373,2.4226,2.4225,2.4224,0,0,2.3532,2.3578,2.3652,2.3697,2.3764,2.3794,2.3811,2.388,2.3903,2.3994,2.4,2.406,2.4176,2.4221,2.4259,2.4362,2.4362,2.4382,2.4423,2.4476,2.4486,2.4495,2.453,2.4542,2.4391,2.4391,2.4391,0,2.356,2.3662,2.369,2.3762,2.3804,2.3813,2.3887,2.3929,2.4014,2.4043,2.4027,2.417,2.4215,2.4322,2.4347,2.4378,2.4398,2.4373,2.4482,2.4492,2.4501,2.4534,2.4547,2.4393,2.4393,2.4392,2.4392,0,2.3692,2.3762,2.3814,2.3895,2.3943,2.4016,2.4054,2.4099,2.411,2.4141,2.4232,2.4286,2.4361,2.4388,2.4401,2.4496,2.4486,2.4476,2.4446,2.4515,2.4546,2.456,2.4395,2.4395,2.4394,2.4394,0,0,2.379,2.3884,2.3902,2.3938,2.4012,2.4067,2.4139,2.4212,2.4249,2.4308,2.4368,2.4465,2.4455,2.4499,2.4516,2.4563,2.4637,2.4547,2.4549,2.456,2.4744,2.4749,2.4764,2.4639,2.4642,2.4644,2.4737,0,2.3884,2.4012,2.4038,2.415,2.4214,2.4222,2.4285,2.4337,2.4367,2.4425,2.4459,2.4526,2.451,2.4535,2.4582,2.4619,2.4674,2.4612,2.4694,2.4697,2.4676,2.4781,2.4788,2.4873,2.475,2.4752,2.4754,0,2.4011,2.4071,2.4188,2.4251,2.4279,2.4335,2.4403,2.4459,2.4518,2.4536,2.4583,2.4596,2.467,2.4637,2.474,2.4697,2.4732,2.4755,2.4759,2.4766,2.4728,2.4789,2.4902,2.4914,2.4774,2.4772,2.4771,0,2.4067,2.4178,2.4261,2.4292,2.4369,2.4408,2.4441,2.4497,2.4539,2.4598,2.4625,2.4692,2.4729,2.4781,2.481,2.4784,2.4909,2.488,2.4925,2.4925,2.4951,2.4948,2.5068,2.4976,2.4976,2.4976,2.4975,0,2.4168,2.4239,2.4287,2.4339,2.4418,2.4447,2.4524,2.4558,2.4607,2.4664,2.4676,2.473,2.4766,2.4825,2.4849,2.4928,2.4945,2.4961,2.4966,2.4959,2.4957,2.4982,2.4976,2.4979,2.4978,2.4978,2.4977,0,2.4245,2.428,2.4371,2.4436,2.4454,2.4509,2.4564,2.4613,2.4643,2.4715,2.4734,2.4781,2.485,2.4885,2.4971,2.4987,2.5076,2.5079,2.5056,2.5058,2.5101,2.5096,2.524,2.5259,2.5156,2.5157,2.5157,0,2.4306,2.4361,2.443,2.4469,2.4503,2.4567,2.4608,2.4639,2.4681,2.4751,2.4792,2.4861,2.4918,2.5028,2.5069,2.5135,2.5138,2.5184,2.5148,2.5138,2.5136,2.5132,2.5136,2.519,2.5191,2.5192,2.5193,0,2.4411,2.4425,2.4485,2.455,2.4599,2.4653,2.4705,2.4736,2.4774,2.4822,2.4892,2.4936,2.5024,2.5092,2.516,2.5194,2.5199,2.5204,2.5217,2.521,2.5193,2.5201,2.5072,2.52,2.5199,2.5199,2.5198,2.5198,2.448,2.4528,2.4584,2.4649,2.4692,2.474,2.4789,2.4824,2.4883,2.4956,2.497,2.5044,2.5099,2.5191,2.5227,2.5285,2.5275,2.5296,2.5301,2.5305,2.5306,2.5185,2.5298,2.5298,2.5298,2.5298,2.5298,0,2.4584,2.4619,2.468,2.4751,2.4803,2.4803,2.486,2.4902,2.4967,2.5018,2.5073,2.5153,2.5219,2.5265,2.5331,2.5369,2.5372,2.5385,2.5382,2.5389,2.5312,2.5292,2.5381,2.5381,2.5381,2.5381,2.5381,2.538,2.4643,2.4723,2.4744,2.4844,2.488,2.4952,2.4984,2.5028,2.5068,2.5156,2.5211,2.524,2.5289,2.5359,2.5418,2.543,2.5453,2.5466,2.5477,2.5404,2.5395,2.5386,2.5368,2.5471,2.5471,2.5549,2.555,2.555]},{"header":{"parameterUnit":"m.s-1","parameterCategory":1,"la1":30.2991,"la2":30.254,"lo1":-89.0895,"lo2":-89.0444,"dy":0.0017,"dx":0.0017,"nx":28,"ny":28,"refTime":"2024-06-09T09:00:00:Z","depth":0,"parameterNumber":3,"parameterNumberName":"V-component_of_WINDS"},"data":[0,0,0,0,0,0,0,0,0,0,0,0,0,0,0,0,0,0,0,0,0,0,0,0,0,0,0,0,0,0,0,0,0,0,0,0,0,0,0,0,0,0,0,0,0,0,0,0,0,0,0,0,0,0,0,0,0,0,4.2342,4.2343,0,4.2419,4.242,4.2421,4.2366,4.2364,4.2361,4.2359,4.2433,4.2437,4.2441,0,0,0,0,0,0,0,0,0,0,0,0,0,4.2139,4.2143,4.2342,4.2343,4.2344,4.2419,4.242,4.2421,4.2367,4.2364,4.2361,4.2358,4.2431,4.2436,4.2441,0,0,0,0,0,0,0,0,0,0,0,0,0,4.2223,4.2145,4.2342,4.2326,4.2325,4.2419,4.242,4.2422,4.2367,4.2363,4.236,4.2356,4.243,4.2436,4.2442,4.2554,0,0,4.2461,4.2464,0,0,0,0,0,0,0,0,4.2218,4.223,4.2327,4.2327,4.2326,4.238,4.2376,4.2466,4.2368,4.2351,4.2359,4.2355,4.2417,4.2425,4.2447,4.2558,4.2561,4.2462,4.2466,4.2468,4.247,0,0,0,0,0,0,0,4.2213,4.2227,4.2372,4.2328,4.2328,4.2312,4.232,4.2393,4.2404,4.2352,4.2348,4.2359,4.2416,4.2441,4.2448,4.2562,4.2462,4.2467,4.2471,4.2474,4.2766,4.277,0,0,0,0,0,0,4.2209,4.2222,4.237,4.2375,4.2262,4.2319,4.2328,4.2366,4.2403,4.2405,4.2362,4.2356,4.2432,4.2441,4.2451,4.2583,4.2468,4.2474,4.2478,4.2762,4.2767,4.2771,0,0,0,0,0,0,4.2205,4.2223,4.2367,4.2298,4.2315,4.2326,4.237,4.237,4.2394,4.241,4.2411,4.2385,4.2429,4.2442,4.2529,4.2585,4.2477,4.2483,4.2758,4.2764,4.2769,4.285,0,0,0,0,0,0,4.2199,4.2222,4.2266,4.2299,4.2319,4.2446,4.2373,4.2374,4.2406,4.2399,4.2432,4.2434,4.2427,4.252,4.2535,4.2592,4.2488,4.2753,4.276,4.2767,4.2843,4.2858,4.2872,0,0,0,0,0,4.2192,4.2285,4.2269,4.2287,4.2375,4.2449,4.246,4.2452,4.2411,4.2454,4.2464,4.2433,4.2577,4.2529,4.2546,4.2605,4.2749,4.2758,4.2767,4.2836,4.2855,4.2871,0,0,0,0,0,0,4.2257,4.2289,4.2272,4.2378,4.2412,4.244,4.2495,4.2473,4.2518,4.2509,4.2496,4.2503,4.2595,4.2609,4.2555,4.2715,4.2656,4.2668,4.2703,4.2721,4.2735,4.2729,4.2493,0,0,0,0,0,4.2284,4.2344,4.2368,4.2459,4.2477,4.2484,4.2516,4.2507,4.254,4.2553,4.257,4.2602,4.2653,4.2688,4.2737,4.2844,4.2849,4.2893,4.2908,4.292,4.2931,4.2986,4.3006,4.2801,4.28,4.28,0,0,4.234,4.2365,4.2403,4.2473,4.2498,4.2558,4.2496,4.2562,4.2606,4.2563,4.2646,4.2659,4.2694,4.2791,4.2835,4.2805,4.2988,4.2931,4.294,4.2945,4.2998,4.3017,4.3034,4.2807,4.2806,4.2805,0,0,4.2472,4.2498,4.2576,4.2603,4.2642,4.2645,4.2664,4.2695,4.2703,4.2787,4.2755,4.2806,4.2896,4.2922,4.2946,4.3087,4.3059,4.3103,4.3178,4.3233,4.3249,4.3263,4.3312,4.333,4.3114,4.3114,4.3114,0,4.2535,4.2627,4.2619,4.2688,4.2718,4.2684,4.2761,4.2787,4.2839,4.286,4.2827,4.2939,4.2959,4.3061,4.3096,4.3117,4.3137,4.3099,4.3248,4.3262,4.3275,4.3321,4.334,4.3119,4.3118,4.3118,4.3117,0,4.2702,4.2766,4.2824,4.2878,4.2915,4.2988,4.2988,4.3026,4.3014,4.302,4.3104,4.3128,4.318,4.3204,4.3192,4.3304,4.3284,4.325,4.319,4.33,4.3343,4.3361,4.3126,4.3124,4.3123,4.3121,0,0,4.2878,4.2925,4.2946,4.2969,4.3009,4.3057,4.3127,4.318,4.3213,4.3249,4.3306,4.3383,4.3351,4.3379,4.337,4.3418,4.3525,4.3377,4.3378,4.3403,4.3648,4.3673,4.3694,4.3508,4.3511,4.3514,4.3645,0,4.3011,4.3136,4.313,4.3246,4.3303,4.327,4.3331,4.3361,4.3368,4.3416,4.3422,4.3477,4.3432,4.3448,4.3494,4.3503,4.3574,4.3493,4.3558,4.3561,4.355,4.3717,4.3744,4.3867,4.3662,4.3665,4.3667,0,4.3183,4.3227,4.335,4.338,4.3404,4.3459,4.3506,4.3553,4.3585,4.3586,4.3618,4.36,4.3668,4.3607,4.37,4.3645,4.3671,4.3679,4.3683,4.3688,4.362,4.3725,4.3906,4.3924,4.3694,4.3691,4.3689,0,4.3297,4.3387,4.3471,4.3492,4.353,4.3569,4.3586,4.3615,4.3647,4.3687,4.3707,4.3754,4.378,4.3816,4.381,4.3766,4.3904,4.3843,4.3905,4.3905,4.3935,4.3933,4.4121,4.3954,4.3953,4.3953,4.3953,0,4.3446,4.3522,4.3523,4.3575,4.3658,4.3649,4.373,4.3743,4.3768,4.382,4.3794,4.3843,4.3833,4.388,4.3876,4.3952,4.3964,4.3966,4.3964,4.3968,4.3968,4.3984,4.3975,4.3958,4.3957,4.3956,4.3955,0,4.3587,4.3591,4.3681,4.371,4.3718,4.3778,4.3801,4.3849,4.3854,4.392,4.3934,4.3941,4.3996,4.3994,4.4056,4.4052,4.4146,4.4135,4.4136,4.4133,4.4196,4.4189,4.44,4.4427,4.4243,4.4245,4.4246,0,4.3681,4.3739,4.3774,4.3808,4.3828,4.3883,4.3915,4.3908,4.3942,4.3983,4.4025,4.4078,4.4119,4.4208,4.4217,4.4264,4.4252,4.4323,4.4259,4.4261,4.4251,4.4248,4.4253,4.4335,4.4337,4.4339,4.434,0,4.3848,4.3847,4.3896,4.3946,4.3986,4.4024,4.4059,4.4087,4.4083,4.4123,4.418,4.4212,4.4275,4.4327,4.4372,4.4386,4.4362,4.436,4.4377,4.4381,4.438,4.438,4.4169,4.4355,4.4354,4.4353,4.4352,4.4351,4.3967,4.4017,4.4049,4.4104,4.413,4.4163,4.4209,4.422,4.4268,4.432,4.4312,4.4375,4.4403,4.4461,4.448,4.4527,4.4502,4.4526,4.4532,4.4538,4.4545,4.4373,4.4535,4.4535,4.4535,4.4534,4.4534,0,4.4131,4.4151,4.4201,4.4252,4.4295,4.427,4.4307,4.4343,4.44,4.443,4.4472,4.4536,4.4586,4.4599,4.4646,4.4681,4.4671,4.4694,4.4691,4.4694,4.4566,4.4546,4.4701,4.4701,4.4701,4.4701,4.4701,4.4701,4.4222,4.4303,4.4306,4.4399,4.4417,4.448,4.4503,4.4533,4.4556,4.463,4.4672,4.4681,4.4703,4.4752,4.4796,4.4798,4.4816,4.4843,4.4841,4.472,4.4703,4.4687,4.4669,4.4847,4.4848,4.4965,4.4966,4.4967]}]]